Fort Wayne, IN

9:58 PM EDT on April 26, 2017 (GMT -0400)
Fort Wayne International

Weather History for KFWA - June, 2013

Change the Weather History Date:

Saturday, June 15, 2013

  Actual Average Record
Temperature  
Mean Temperature 69 °F 70 °F  
Max Temperature 78 °F 81 °F 96 °F (1988)
Min Temperature 59 °F 60 °F 43 °F (1909)
Degree Days  
Heating Degree Days 0 1  
Month to date heating degree days 19 24  
Since 1 June heating degree days 19 24  
Since 1 July heating degree days 6000 6096  
Cooling Degree Days 4 6  
Month to date cooling degree days 55 69  
Year to date cooling degree days 160 126  
Since 1 June cooling degree days 55 69  
Growing Degree Days 18 (Base 50)    
Moisture  
Dew Point 61 °F    
Average Humidity 77    
Maximum Humidity 93    
Minimum Humidity 60    
Precipitation  
Precipitation 0.01 in 0.13 in 2.73 in (2015)
Month to date precipitation 2.29 2.23  
Year to date precipitation 19.96 17.03  
Snow  
Snow 0.00 in 0.00 in 0.00 in (2002)
Month to date snowfall 0.0 0.0  
Since 1 June snowfall 0.0 0.0  
Since 1 July snowfall 38.5 33.5  
Snow Depth 0.00 in    
Sea Level Pressure  
Sea Level Pressure 30.04 in    
Wind  
Wind Speed 5 mph (SSW)    
Max Wind Speed 15 mph    
Max Gust Speed 20 mph    
Visibility 10 miles    
Events Rain    
T = Trace of Precipitation, MM = Missing Value Source: NWS Daily Summary

Daily Weather History Graph

Daily Weather History Graph

Search for Another Location

Airport or City:

Trip Planner

Search our weather history database for the weather conditions in past years. The results will help you decide how hot, cold, wet, or windy it might be!

Date:

Astronomy

Jun. 15, 2013 Rise Set
Actual Time 6:08 AM EDT 9:14 PM EDT
Civil Twilight 5:34 AM EDT 9:48 PM EDT
Nautical Twilight 4:51 AM EDT 10:31 PM EDT
Astronomical Twilight 4:00 AM EDT 11:22 PM EDT
Moon 12:44 PM EDT (6/15) 12:47 AM EDT (6/15)
Length of Visible Light 16h 13m
Length of Day
15h 06m
Waxing Crescent, 39% of the Moon is Illuminated
Jun 15
Waxing Crescent
Jun 16
First Quarter
Jun 23
Full
Jun 30
Last Quarter
Jul 8
New

Hourly Weather History & Observations

Time (EDT) Temp. Dew Point Humidity Pressure Visibility Wind Dir Wind Speed Gust Speed Precip Events Conditions
12:54 AM 62.1 °F 59.0 °F 90% 30.04 in 10.0 mi Calm Calm - N/A   Partly Cloudy
1:54 AM 61.0 °F 57.9 °F 90% 30.06 in 10.0 mi WSW 3.5 mph - N/A   Partly Cloudy
2:54 AM 61.0 °F 57.0 °F 87% 30.06 in 10.0 mi WSW 4.6 mph - N/A   Scattered Clouds
3:54 AM 61.0 °F 55.9 °F 83% 30.07 in 10.0 mi SSW 3.5 mph - N/A   Scattered Clouds
4:54 AM 61.0 °F 55.9 °F 83% 30.06 in 10.0 mi South 3.5 mph - N/A   Partly Cloudy
5:54 AM 60.1 °F 55.9 °F 86% 30.07 in 9.0 mi South 3.5 mph - N/A   Mostly Cloudy
6:54 AM 61.0 °F 57.9 °F 90% 30.09 in 8.0 mi Calm Calm - N/A   Mostly Cloudy
7:54 AM 64.0 °F 59.0 °F 84% 30.11 in 9.0 mi Calm Calm - N/A   Mostly Cloudy
8:54 AM 66.0 °F 59.0 °F 78% 30.11 in 10.0 mi SSW 4.6 mph - N/A   Mostly Cloudy
9:54 AM 71.1 °F 60.1 °F 68% 30.09 in 10.0 mi SSW 8.1 mph - N/A   Mostly Cloudy
10:54 AM 73.9 °F 59.0 °F 59% 30.05 in 10.0 mi SSW 10.4 mph - N/A   Mostly Cloudy
11:54 AM 75.9 °F 62.1 °F 62% 30.03 in 10.0 mi South 10.4 mph - N/A   Mostly Cloudy
12:54 PM 77.0 °F 62.1 °F 60% 30.01 in 10.0 mi South 6.9 mph - N/A   Mostly Cloudy
1:54 PM 75.9 °F 61.0 °F 60% 30.04 in 10.0 mi WSW 6.9 mph - N/A   Overcast
2:54 PM 75.0 °F 62.1 °F 64% 30.05 in 10.0 mi West 6.9 mph - N/A   Overcast
3:54 PM 73.9 °F 64.9 °F 73% 30.05 in 10.0 mi NNW 5.8 mph - 0.00 in Rain Light Rain
4:54 PM 72.0 °F 66.0 °F 81% 30.04 in 8.0 mi NNW 4.6 mph - 0.00 in Rain Light Rain
5:54 PM 71.1 °F 66.0 °F 84% 30.02 in 10.0 mi North 5.8 mph - 0.01 in   Overcast
6:54 PM 70.0 °F 64.0 °F 81% 30.00 in 10.0 mi NE 4.6 mph - N/A   Overcast
7:54 PM 70.0 °F 64.9 °F 84% 29.96 in 10.0 mi East 9.2 mph - N/A   Mostly Cloudy
8:54 PM 70.0 °F 64.9 °F 84% 29.96 in 10.0 mi ESE 8.1 mph - N/A   Mostly Cloudy
9:54 PM 66.9 °F 64.0 °F 90% 29.97 in 9.0 mi SE 3.5 mph - N/A   Mostly Cloudy
10:54 PM 66.0 °F 63.0 °F 90% 29.97 in 9.0 mi SSE 4.6 mph - N/A   Mostly Cloudy
11:54 PM 64.9 °F 62.1 °F 90% 29.95 in 6.0 mi South 4.6 mph - N/A   Mostly Cloudy